Regional Weather Roundup
Issued by NWS Green Bay, WI

Home | Current Version | Previous Version | Graphics & Text | Print | Product List | Glossary Off
Versions: 1 2 3 4 5 6 7 8 9 10 11 12 13 14 15 16 17 18 19 20 21 22 23 24 25 26 27 28 29 30 31 32 33 34 35 36 37 38 39 40 41 42 43 44 45 46 47 48 49 50

000
ASUS43 KGRB 221511
RWRGRB

NORTH-CENTRAL AND NORTHEAST WISCONSIN REGIONAL WEATHER ROUNDUP
NATIONAL WEATHER SERVICE GREEN BAY WI
1000 AM CDT SAT APR 22 2017

WIZ005-009-010>012-018-019-221600-
NORTH CENTRAL WISCONSIN

CITY           SKY/WX    TMP DP  RH WIND       PRES   REMARKS
IRONWOOD       SUNNY     57  30  35 SW15      30.19F
MANITOWISH WTR SUNNY     55  28  35 SW13      30.21S
ARBOR VITAE    SUNNY     57  26  31 W7        30.21S
EAGLE RIVER    SUNNY     55  23  28 SW9       30.21F
LAND O LAKES   SUNNY     56  23  28 W8        30.22S
RHINELANDER    SUNNY     55  20  25 SW7       30.23F
PHILLIPS       SUNNY     54  23  30 SW7       30.23S
ANTIGO         SUNNY     52  20  29 SW8       30.24S
TOMAHAWK       SUNNY     54  19  24 CALM      30.24F
MERRILL        SUNNY     51  28  42 SW5       30.25F
$$

WIZ013-073-221600-
NORTHEAST WISCONSIN

CITY           SKY/WX    TMP DP  RH WIND       PRES   REMARKS
IRON MOUNTAIN  SUNNY     56  17  21 VRB7      30.20S
MARINETTE      SUNNY     54  21  27 CALM      30.24F
OCONTO         SUNNY     53  23  31 CALM      30.23F
$$

WIZ017-030-035>037-045-221600-
CENTRAL WISCONSIN

CITY           SKY/WX    TMP DP  RH WIND       PRES   REMARKS
MEDFORD        SUNNY     49  32  52 SW7       30.25S
WAUSAU         SUNNY     51  28  41 VRB3      30.24S
MOSINEE        SUNNY     52  32  46 W8        30.26F
MARSHFIELD     SUNNY     51  29  42 SW7       30.24F
WISC RAPIDS    SUNNY     52  32  46 SW5       30.26F
STEVENS POINT  SUNNY     50  30  46 W5        30.26S
WAUPACA        SUNNY     55  27  34 W3        30.26S
SHAWANO        SUNNY     55  27  33 W3        30.25F
CLINTONVILLE   SUNNY     52  28  40 W6        30.25F
WAUTOMA        SUNNY     53  25  33 W3        30.26F
$$

WIZ038-039-048-051-221600-
FOX VALLEY

CITY           SKY/WX    TMP DP  RH WIND       PRES   REMARKS
NWS GREEN BAY  SUNNY     54  34  46 W6        30.24F
APPLETON       MOSUNNY   50  30  46 W6        30.24S
OSHKOSH        SUNNY     51  29  42 N8        30.25R
FOND DU LAC    SUNNY     52  30  43 CALM      30.25S
$$

WIZ022-050-052-221600-
EAST CENTRAL WISCONSIN

CITY           SKY/WX    TMP DP  RH WIND       PRES   REMARKS
EPHRAIM        FAIR      52  24  33 CALM      30.22S
WASHINGTON ISL FAIR      46  30  52 SW5       30.22S
STURGEON BAY   SUNNY     52  22  30 NW6       30.24F
MANITOWOC      SUNNY     52  28  39 VRB5      30.24F
SHEBOYGAN      SUNNY     52  26  36 NE6       30.24S
$$

LMZ563-521-522-541>543-221600-
LAKESHORE

STATION/POSITION TIME  TEMP    WIND        PRES    VSBY  WAVE
                       AIR SEA DIR/SP/G                  HT/PER
                 (UTC) (F)     (DEG/KT/KT) (MB)    (MI)  (FT/S)
SHEBOYGAN LKSHOR 1500   49     350/  7/  8 1024.3R
KEWAUNEE LKSHORE 1448   52     340/  4/  7 1023.2F
NORTHPORT PIER   1440   43     330/  3/  3 1023.4F
N MID LAKE BUOY  1450   38 37  230/  4/  4 1025.1R         0
SISTER BAY LKSHO 1436   47        CALM       N/A
CHAMBERS ISLAND  1440   51     210/  2/  3 1023.4F
MENOMINEE LKSHOR 1448   49     170/  1/  2 1022.9F
$$




USA.gov is the U.S. government's official web portal to all federal, state and local government web resources and services.